Terug naar catalogus

COSMOS 1670 DEB

ActiefLEO
NORAD 44569·DEBRIS·🇷🇺 Russia

Gelanceerd Aug 1, 1985 vanaf Baikonur Cosmodrome

Loading…

Volgende Passages (komende 24 uur)

TLE

VersSource: Space-Track

Epoch: Sep 14, 2026, 06:03 UTC

1 44569U 85064F   26257.25224803  .00022793  00000-0  36598-2 0  9995
2 44569  64.8961  76.5481 0031066 295.9410 241.6677 14.71296161119238

Volg COSMOS 1670 DEB in realtime met AllMySat

Download on the App Store